EW7404 Weather Reports


Display with metric or nautical units.
time (UTC)temp
F
wind
direction
speed
MPH
gust
MPH
rain 1hr
in
rain 24hr
in
rain mn
in
humidity
%
barometer
mb
20260506122515 44 342 6.0 10.0 0.00 0.44 0.44 61 952.6
20260506121515 44 324 5.0 6.0 0.00 0.44 0.44 60 952.6
20260506120535 45 306 2.0 4.0 0.24 0.44 0.44 58 952.6
20260506115515 46 338 3.0 6.0 0.24 0.44 0.44 56 952.6
20260506114516 46 348 1.0 17.0 0.24 0.44 0.44 52 952.7
20260506113516 44 348 3.0 6.0 0.24 0.44 0.44 57 952.7
20260506112515 45 352 3.0 7.0 0.24 0.44 0.44 56 952.7
20260506111516 48 352 1.0 5.0 0.24 0.44 0.44 51 952.7
20260506110516 45 344 1.0 4.0 0.00 0.20 0.20 58 952.7
20260506105515 43 50 2.0 6.0 0.00 0.20 0.20 62 952.7
20260506104515 43 326 5.0 7.0 0.00 0.44 0.20 65 952.7
20260506103515 43 354 5.0 9.0 0.00 0.44 0.20 65 952.7
20260506102515 44 341 4.0 7.0 0.00 0.44 0.20 63 952.8
20260506101515 44 354 2.0 4.0 0.00 0.44 0.20 61 952.8
20260506100535 43 9 2.0 7.0 0.00 0.44 0.20 60 952.8
20260506095515 46 22 3.0 8.0 0.00 0.44 0.20 54 952.7
20260506094515 43 47 1.0 4.0 0.00 0.44 0.20 65 952.8
20260506093515 42 336 6.0 10.0 0.00 0.67 0.20 64 952.7
20260506092535 44 17 3.0 6.0 0.00 0.67 0.20 57 952.6
20260506091515 43 7 6.0 12.0 0.00 0.67 0.20 63 952.6
20260506090515 44 71 6.0 10.0 0.00 0.67 0.20 59 952.6
20260506085515 43 62 6.0 12.0 0.00 0.67 0.20 61 952.5
20260506084515 45 66 3.0 10.0 0.00 0.67 0.20 54 952.4
20260506083515 43 62 6.0 13.0 0.00 0.67 0.20 56 952.3
20260506082515 44 62 4.0 9.0 0.00 0.67 0.20 58 952.3
20260506081514 43 6 2.0 5.0 0.00 0.67 0.20 56 952.2
20260506080535 42 359 3.0 6.0 0.00 0.67 0.20 59 952.2
20260506073515 45 20 3.0 7.0 0.00 3.23 0.20 52 952.1
20260506072515 45 199 3.0 5.0 0.00 3.23 0.20 49 952.1
20260506071515 44 235 2.0 6.0 0.00 3.23 0.20 50 952.1
20260506070516 44 333 1.0 6.0 0.00 3.23 0.20 54 952.1
20260506062515 43 230 3.0 6.0 0.00 3.23 0.20 48 952.1
20260506061516 45 285 1.0 3.0 0.00 3.23 0.20 45 952.1
20260506060515 45 243 1.0 2.0 0.00 3.23 0.20 46 952.1
20260506050515 41 312 2.0 3.0 0.00 3.23 0.20 55 951.8
20260506044515 40 281 3.0 5.0 0.00 3.23 0.20 57 951.6
20260506043515 40 244 3.0 4.0 0.00 3.23 0.20 57 951.6
20260506042515 40 318 3.0 4.0 0.00 3.23 0.20 56 951.5
20260506041515 40 356 2.0 4.0 0.00 3.23 0.20 56 951.4
20260506040515 40 304 2.0 3.0 0.00 3.23 0.20 59 951.4
20260506035515 39 283 3.0 4.0 0.00 3.23 0.20 60 951.3
20260506034515 39 277 3.0 6.0 0.00 3.23 0.20 61 951.2
20260506033516 39 276 3.0 5.0 0.00 3.23 0.20 62 951.2
20260506032515 39 280 6.0 7.0 0.00 3.23 0.20 62 951.1
20260506031515 39 287 8.0 10.0 0.00 3.23 0.20 62 951.1
20260506030515 39 288 9.0 11.0 0.00 3.23 0.20 62 951.1
20260506025515 39 291 9.0 11.0 0.00 3.23 0.20 62 951.1
20260506024514 39 290 9.0 11.0 0.00 3.23 0.20 62 951.1
20260506023515 39 300 9.0 11.0 0.00 3.23 0.20 61 951.1
20260506022514 39 306 9.0 11.0 0.00 3.44 0.20 61 951.1
20260506021515 39 297 10.0 12.0 0.00 3.44 0.20 60 951.1
20260506020515 39 301 9.0 11.0 0.00 3.44 0.20 60 951.1
20260506015515 39 305 9.0 11.0 0.00 3.44 0.20 59 951.1
20260506014515 39 302 10.0 12.0 0.00 3.44 0.20 59 951.1
20260506013515 40 283 9.0 11.0 0.00 3.44 0.20 59 951.1
20260506012536 40 288 10.0 12.0 0.00 3.44 0.20 59 951.1
20260506011515 40 286 10.0 13.0 0.00 3.44 0.20 58 951.1
20260506010536 40 286 10.0 12.0 0.00 3.44 0.20 58 951.1
20260506005515 40 287 10.0 12.0 0.00 3.44 0.20 57 951.2
20260506004516 40 288 11.0 13.0 0.00 3.44 0.20 57 951.1
20260506003515 40 291 10.0 12.0 0.00 3.44 0.20 57 951.2
20260506002515 40 300 8.0 10.0 0.00 3.44 0.20 56 951.3
20260506001515 40 308 7.0 9.0 0.00 3.44 0.20 55 951.3
20260506000515 40 301 6.0 8.0 0.00 3.44 0.20 55 951.4
20260505235516 41 302 7.0 9.0 0.00 3.44 0.20 53 951.5
20260505234515 41 314 6.0 7.0 0.00 3.44 0.20 53 951.6
20260505233515 41 314 7.0 9.0 0.00 3.44 0.20 52 951.6
20260505232515 41 304 8.0 10.0 0.00 3.44 0.20 52 951.6
20260505231515 41 294 8.0 11.0 0.00 3.44 0.20 52 951.7
20260505230535 41 292 8.0 10.0 0.00 3.44 0.20 51 951.7
20260505225515 41 296 7.0 9.0 0.00 3.44 0.20 51 951.7
20260505224536 41 307 6.0 8.0 0.00 3.44 0.20 50 951.9
20260505223515 41 322 6.0 7.0 0.00 3.44 0.20 50 951.9
20260505222515 41 309 6.0 8.0 0.20 3.44 0.20 50 951.8
20260505221515 41 310 7.0 9.0 0.20 3.44 0.20 50 951.8
20260505220535 41 312 8.0 10.0 0.20 3.44 0.20 50 951.9
20260505215515 41 302 7.0 8.0 0.20 3.44 0.20 50 951.9
20260505214535 41 297 7.0 9.0 0.20 3.44 0.20 50 952.0
20260505213515 41 306 7.0 9.0 0.20 3.44 0.20 50 952.1
20260505212516 42 292 9.0 11.0 0.00 3.25 0.00 50 952.0
20260505211515 42 286 10.0 11.0 0.00 3.25 0.00 50 951.9
20260505210515 42 283 11.0 13.0 0.00 3.25 0.00 50 952.0
20260505205515 42 280 12.0 13.0 0.00 3.25 3.25 50 952.0
20260505204515 41 278 10.0 13.0 0.00 3.48 3.24 50 952.0
20260505203515 41 269 8.0 11.0 0.00 3.48 3.24 51 952.0
20260505202516 41 271 6.0 9.0 0.00 3.48 3.24 53 952.0
20260505201515 41 263 7.0 8.0 0.00 3.48 3.24 53 952.1
20260505200515 40 236 3.0 4.0 0.00 3.48 3.24 56 951.9
20260505195515 40 168 3.0 3.0 0.00 3.48 3.24 61 952.0
20260505194515 40 154 3.0 4.0 0.00 3.48 3.24 61 952.1
20260505193515 40 147 4.0 5.0 0.00 3.48 3.24 62 952.0
20260505192516 40 137 5.0 6.0 0.00 3.48 3.24 63 951.9
20260505191515 40 140 6.0 7.0 0.00 3.48 3.24 63 951.8
20260505190515 40 139 6.0 8.0 0.00 3.48 3.24 62 951.8
20260505185515 40 143 7.0 9.0 0.00 3.48 3.24 62 951.8
20260505184515 40 138 5.0 8.0 0.00 3.48 3.24 62 951.7
20260505183515 40 140 5.0 8.0 0.00 6.04 3.24 62 951.6
20260505182514 40 142 4.0 5.0 0.00 6.04 3.24 61 951.6
20260505181515 40 142 4.0 5.0 0.00 6.04 3.24 61 951.6
20260505180516 40 147 5.0 7.0 0.00 6.04 3.24 59 951.4
20260505175535 40 146 6.0 7.0 0.00 6.04 3.24 59 951.4
20260505174515 40 155 5.0 7.0 0.00 6.04 3.24 59 951.4
20260505173516 41 139 5.0 8.0 0.00 6.04 3.24 57 951.4
20260505172515 41 95 6.0 8.0 0.00 6.04 3.24 57 951.5
20260505171516 41 79 5.0 7.0 0.00 6.04 3.24 56 951.6
20260505170515 41 96 6.0 8.0 0.00 6.04 3.24 56 951.6
20260505165515 41 79 6.0 8.0 0.00 6.04 3.24 56 951.6
20260505164535 42 77 6.0 9.0 0.00 6.04 3.24 56 951.6
20260505163515 42 82 6.0 7.0 0.00 6.04 3.24 56 951.6
20260505162515 42 86 7.0 10.0 0.00 6.04 3.24 56 951.6
20260505161515 42 59 5.0 7.0 0.00 6.04 3.24 54 951.7
20260505160536 42 60 3.0 5.0 0.00 6.04 3.24 53 951.8
20260505152515 42 87 6.0 10.0 0.00 6.04 3.24 56 951.9
20260505151514 42 70 6.0 11.0 0.00 6.04 3.24 55 952.1
20260505150515 44 35 5.0 14.0 0.00 6.04 3.24 52 952.0
20260505140515 41 74 7.0 12.0 0.00 6.04 3.24 55 952.1
20260505124515 42 319 4.0 7.0 0.00 6.05 3.24 52 952.2
20260505123515 41 327 6.0 10.0 0.00 6.05 3.24 54 952.3